Location: Brantley
(31.5822°N, 86.2569°W)
Time: 17:37:01
(UTC+00:00)

Transit 2A Rocket - Pass Details

Date: 20 February 2026
Orbit: 583 x 900 km, 66.7° (Epoch: 12 March)

Event Time Altitude Azimuth Distance (km) Brightness Sun altitude
Rises 05:58:31 0° 343° (NNW) 3,301 - -69.3°
Reaches altitude 10° 06:01:13 10° 352° (N) 2,315 - -69.3°
Maximum altitude 06:06:04 36° 58° (ENE) 1,132 - -69.2°
Drops below altitude 10° 06:10:29 10° 125° (SE) 2,110 - -69.1°
Sets 06:12:51 0° 134° (SE) 2,972 - -69.1°
